Simultaneous Nadir Overpasses (SNOs) Predictions

Prediction of SNOs between AQUA and LANDSAT-8 Satellite Orbit:

Table of predicted SNOs for the next 14.0 days since TLE Epoch: 4/28/2024
Index Date (AQUA) Time (AQUA) Lat,Lon (AQUA) SZA (AQUA ) Date (LANDSAT-8) Time (LANDSAT-8) Lat,Lon (LANDSAT-8) SZA (LANDSAT-8 ) Distance(km) Time Diff (sec)
1 05/11/2024 15:49:04 -73.05, 126.18 125.12 05/11/2024 15:47:57 -73.03, 123.85 125.18 75.71 67
2 05/11/2024 16:38:28 73.10, -66.27 54.93 05/11/2024 16:37:21 73.09, -68.40 54.87 68.77 67
3 05/11/2024 17:27:54 -73.34, 100.89 124.86 05/11/2024 17:26:44 -73.34, 99.75 124.88 36.29 70
4 05/11/2024 18:17:18 73.39, -91.57 55.19 05/11/2024 18:16:08 73.40, -92.49 55.17 29.19 70
5 05/11/2024 19:06:44 -73.63, 75.58 124.59 05/11/2024 19:05:31 -73.64, 75.67 124.58 3.36 73
6 05/11/2024 19:56:07 73.63,-116.77 55.41 05/11/2024 19:54:56 73.65,-116.67 55.42 3.72 71
7 05/11/2024 20:45:28 -73.61, 50.93 124.63 05/11/2024 20:44:24 -73.64, 50.94 124.61 2.68 64
8 05/11/2024 21:34:51 73.62,-141.41 55.37 05/11/2024 21:33:49 73.64,-141.40 55.39 3.13 62
9 05/11/2024 22:24:13 -73.65, 26.18 124.61 05/11/2024 22:23:17 -73.63, 26.20 124.63 1.91 56
10 05/11/2024 23:13:36 73.65,-166.17 55.39 05/11/2024 23:12:42 73.64,-166.14 55.37 1.67 54
11 05/12/2024 00:02:57 -73.63, 1.54 124.65 05/12/2024 00:02:10 -73.62, 1.47 124.66 2.13 47
12 05/12/2024 00:52:20 73.63, 169.19 55.35 05/12/2024 00:51:35 73.63, 169.13 55.35 1.91 45
13 05/12/2024 01:41:42 -73.66, -23.22 124.63 05/12/2024 01:41:02 -73.67, -23.15 124.63 2.28 40
14 05/12/2024 02:31:05 73.66, 144.43 55.36 05/12/2024 02:30:27 73.67, 144.50 55.38 2.64 38
15 05/12/2024 03:20:26 -73.64, -47.86 124.67 05/12/2024 03:19:55 -73.66, -47.89 124.65 2.46 31



Historial Predications of SNOs between AQUA and LANDSAT-8
